Regional Weather Roundup
Issued by NWS Northern Indiana

Home | Current Version | Previous Version | Text Only | Print | Product List | Glossary Off
Versions: 1 2 3 4 5 6 7 8 9 10 11 12 13 14 15 16 17 18 19 20 21 22 23 24 25 26 27 28 29 30 31 32 33 34 35 36 37 38 39 40 41 42 43 44 45 46 47 48 49 50

000
ASUS43 KIWX 271200
RWRIWX

KIWX WEATHER ROUNDUP
NATIONAL WEATHER SERVICE NORTHERN INDIANA
700 AM EST SAT DEC 27 2014

NOTE: "FAIR" INDICATES FEW OR NO CLOUDS BELOW 12,000 FEET WITH NO
SIGNIFICANT WEATHER AND/OR OBSTRUCTIONS TO VISIBILITY.

* THESE STATIONS ARE NOT UNDER NWS QUALITY CONTROL. THEY ALSO MAY NOT
  REPORT WEATHER SUCH AS PRECIPITATION OR FOG.

INZ001>027-271300-
NORTHERN INDIANA

CITY           SKY/WX    TMP DP  RH WIND       PRES   REMARKS
GARY*          CLOUDY    48  43  81 S8G23     30.00R
VALPARAISO     CLOUDY    44  43  96 S13       30.02R
KNOX*          CLOUDY    44  40  86 S14       30.02S
6HR MIN TEMP:   9; 6HR MAX TEMP:  81;

SOUTH BEND     CLOUDY    45  43  93 S14       30.03F FOG
6HR MIN TEMP:  45; 6HR MAX TEMP:  48; 6HR PCP:  0.04;

GOSHEN         CLOUDY    44  42  93 S16       30.04S FOG
6HR MIN TEMP:  44; 6HR MAX TEMP:  47; 6HR PCP:  0.06;

WARSAW*        LGT RAIN  43  41  93 S6        30.06S
ANGOLA*        CLOUDY    43  43 100 S8        30.06R
FORT WAYNE     LGT RAIN  45  39  79 S14       30.09F
6HR MIN TEMP:  44; 6HR MAX TEMP:  46; 6HR PCP:  0.01;

PERU/GRISSOM   CLOUDY    43  43 100 S13       30.06F

$$
INZ028>050-271300-
CENTRAL INDIANA

CITY           SKY/WX    TMP DP  RH WIND       PRES   REMARKS
LAFAYETTE      CLOUDY    44  43  96 S9        30.07S FOG
6HR MIN TEMP:  43; 6HR MAX TEMP:  48; 6HR PCP:  0.03;

KOKOMO*        MOCLDY    43  39  87 S14       30.08S
6HR MIN TEMP:  43; 6HR MAX TEMP:  46; 6HR PCP:  0.01;

MUNCIE*        LGT RAIN  44  37  76 S12G18    30.12R
6HR MIN TEMP:  44; 6HR MAX TEMP:  48; 6HR PCP:  0.01;

INDIANAPOLIS   LGT RAIN  42  40  92 S13       30.12S FOG
6HR MIN TEMP:  42; 6HR MAX TEMP:  46; 6HR PCP:  0.03;


$$
MIZ043>046-050>051-056>058-064>065-071>073-077>080-271300-
SOUTHWEST LOWER MICHIGAN

CITY           SKY/WX    TMP DP  RH WIND       PRES   REMARKS
BATTLE CREEK   LGT RAIN  45  42  89 S14       30.02F
6HR MIN TEMP:  44; 6HR MAX TEMP:  45; 6HR PCP:  0.01;

BENTON HARBOR  CLOUDY    45  44  97 S9G20     29.99S
6HR MIN TEMP:  43; 6HR MAX TEMP:  46; 6HR PCP:  0.01;

COLDWATER*     MIX PCPN  44  42  95 S8G16     30.04S
6HR MIN TEMP:  43; 6HR MAX TEMP:  46;

HILLSDALE*     DRIZZLE   43  43 100 S8        30.05S
6HR MIN TEMP:  41; 6HR MAX TEMP:  44;

HOLLAND        CLOUDY    47  42  83 S12       29.97F
6HR MIN TEMP:  43; 6HR MAX TEMP:  47; 6HR PCP: TRACE;

GRAND RAPIDS   MOCLDY    44  41  89 S12       29.98F
6HR MIN TEMP:  42; 6HR MAX TEMP:  46;

KALAMAZOO      CLOUDY    45  42  89 S12       30.02F FOG
6HR MIN TEMP:  42; 6HR MAX TEMP:  45; 6HR PCP: TRACE;

STURGIS*       DRIZZLE   43  43 100 S12       30.03F
THREE RIVERS*  CLOUDY    44  42  94 S10       30.03F FOG
6HR MIN TEMP:  41; 6HR MAX TEMP:  45;


$$
OHZ001>008-015>018-024>025-271300-
NORTHWEST OHIO

CITY           SKY/WX    TMP DP  RH WIND       PRES   REMARKS
DEFIANCE       CLOUDY    46  39  76 S9        30.10S
6HR MIN TEMP:  45; 6HR MAX TEMP:  46;

FINDLAY        CLOUDY    45  38  76 S10       30.12S
6HR MIN TEMP:  44; 6HR MAX TEMP:  45; 6HR PCP: TRACE;

TOLEDO EXPRESS CLOUDY    45  39  79 S5        30.09S
6HR MIN TEMP:  43; 6HR MAX TEMP:  46;

TOLEDO METCALF CLOUDY    46  39  76 S10       30.11S
6HR MIN TEMP:  43; 6HR MAX TEMP:  47;

LIMA           CLOUDY    47  36  65 S12       30.13R
6HR MIN TEMP:  45; 6HR MAX TEMP:  47; 6HR PCP: TRACE;


$$
AND FOR LAKE MICHIGAN COASTAL AND OPEN LAKE BUOY OBSERVATIONS

STATION/POSITION TEMP    WIND        PRES    VSBY  WAVE
                 AIR SEA DIR/SP/G                  HT/PER
                 (F)     (DEG/KT/KT) (MB)    (MI)  (FT/S)
CALUMET HARBOR    46     190/ 12/ 18 1014.0R
MICHIGAN CITY     45     170/ 15/ 19   N/A
SAINT JOSEPH      46     160/  5/ 12 1015.6F

$$
&&



USA.gov is the U.S. government's official web portal to all federal, state and local government web resources and services.